Location: Goettingen
(51.5300°N, 9.9433°E)
Time: 17:53:12
(UTC+02:00)

ISS - Pass Details

Date: 29 May 2020
Orbit: 417 x 420 km, 51.6° (Epoch: 26 May)

Event Time Altitude Azimuth Distance (km) Brightness Sun altitude
Rises 22:21:10 0° 284° (WNW) 2,367 1.1 -7.1°
Reaches altitude 10° 22:23:22 10° 275° (W) 1,501 -0.2 -7.3°
Maximum altitude 22:26:28 35° 208° (SSW) 700 -2.8 -7.6°
Enters shadow 22:29:24 11° 142° (SE) 1,440 -1.7 -7.9°
